Location: *
(44.3704°N, 135.1197°E)
Time: 02:48:52
(UTC+00:00)

Daily predictions for brighter satellites

Satellite Brightness Start Highest point End
(mag) Time Altitude Azimuth Time Altitude Azimuth Time Altitude Azimuth
ATLAS 2AS CENTAUR R/B 4.5 11:09:37 10° WSW 11:16:11 38° NW 11:22:35 10° NNE
Cosmos 1703 Rocket 3.9 11:14:38 10° SSE 11:18:43 44° E 11:22:50 10° NNE
SL-08 R/B 4.0 11:14:43 10° N 11:19:13 58° WNW 11:23:43 10° SSW
CZ-4B R/B 3.6 11:14:50 10° SSE 11:20:05 82° ENE 11:25:21 10° NNW
Spot 2 Rocket 4.4 11:16:47 10° SE 11:21:22 35° ENE 11:25:58 10° N
IRIDIUM 114 4.3 11:18:55 10° S 11:24:06 73° E 11:29:19 10° N
MOS 1 4.3 11:21:06 10° SSE 11:26:45 87° ENE 11:32:25 10° NNW
MetOp-B 4.2 11:21:23 10° SSE 11:26:45 84° ENE 11:32:08 10° NNW
MOS 1-B 4.4 11:21:45 10° SSE 11:27:31 81° ENE 11:33:18 10° NNW
Cosmos 2082 Rocket 3.4 11:23:05 10° N 11:28:03 30° NE 11:33:02 10° ESE
Cosmos 1741 Rocket 4.1 11:23:39 10° SSW 11:28:57 86° ESE 11:34:17 10° NNE
Cosmos 1943 Rocket 2.5 11:24:11 10° S 11:29:19 42° ESE 11:34:32 10° NE
Cosmos 2278 Rocket 2.5 11:25:26 10° S 11:30:50 48° ESE 11:36:16 10° NE
BlueWalker 3 2.5 11:28:23 10° SSW 11:31:39 31° SE 11:34:56 10° ENE
ISS -2.6 11:29:26 10° SSW 11:32:10 23° SE 11:34:54 10° E
Meteor PRIRODA 2.9 11:30:08 10° SSE 11:32:58 82° ENE 11:35:49 10° N
IRIDIUM 103 4.4 11:28:02 10° S 11:33:15 87° E 11:38:30 10° N
SJ 16-02 3.4 11:30:00 10° SW 11:33:51 32° WNW 11:37:45 10° N
Cosmos 1814 Rocket 4.3 11:30:58 10° NNW 11:36:14 57° ENE 11:41:21 10° SE
Okean 1-7 3.9 11:32:24 10° SSW 11:36:25 50° WNW 11:40:30 10° N
Okean O Rocket 1.6 11:32:48 10° SSE 11:37:07 86° WSW 11:41:31 10° NNW
Gbstr 26 Del rocket 3.3 11:44:18 10° SW 11:48:50 65° SE 11:54:27 10° ENE
Cosmos 1833 Rocket 3.4 11:44:07 10° NW 11:49:33 52° WSW 11:54:57 10° S
SPOT 3 Rocket 4.2 11:47:01 12° SE 11:51:29 42° ENE 11:56:21 10° N
ATLAS 3B R/B 3.7 11:45:10 10° NW 11:52:34 47° WSW 11:59:37 10° S
CZ-4 R/B 4.0 11:50:50 10° WSW 11:52:39 13° W 11:54:28 10° WNW
SL-4 R/B 4.4 11:54:41 10° WSW 11:56:23 12° SW 11:58:04 10° SSW
